Location: Tauranga
(37.6860°S, 176.1670°E)
Time: 15:00:37
(UTC+13:00)

ISS - Pass Details

Date: 28 January 2019
Orbit: 403 x 411 km, 51.6° (Epoch: 17 February)

Event Time Altitude Azimuth Distance (km) Brightness Sun altitude
Exits shadow 05:31:08 12° 330° (NNW) 1,364 -1.7 -10.0°
Maximum altitude 05:34:03 48° 44° (NE) 553 -3.1 -9.5°
Drops below altitude 10° 05:37:18 10° 119° (ESE) 1,493 0.7 -9.0°
Sets 05:39:26 0° 125° (SE) 2,359 2.5 -8.6°
